TimeMDT,TemperatureF,Dew PointF,Humidity,Sea Level PressureIn,VisibilityMPH,Wind Direction,Wind SpeedMPH,Gust SpeedMPH,PrecipitationIn,Events,Conditions,WindDirDegrees,DateUTC
12:27 AM,32.0,30.2,93,30.09,1.8,East,16.1,-,0.00,Snow,Light Snow,80,2013-04-22 06:27:00
12:52 AM,30.9,30.0,96,30.16,2.5,East,15.0,-,0.01,Snow,Light Snow,80,2013-04-22 06:52:00
12:59 AM,30.2,30.2,100,30.09,4.0,East,18.4,-,0.00,Snow,Light Snow,80,2013-04-22 06:59:00
1:08 AM,30.2,28.4,93,30.10,3.0,East,17.3,-,0.00,Snow,Light Snow,80,2013-04-22 07:08:00
1:13 AM,30.2,28.4,93,30.10,1.8,East,16.1,-,0.00,Snow,Light Snow,80,2013-04-22 07:13:00
1:22 AM,30.2,28.4,93,30.11,0.8,ENE,17.3,-,0.00,Snow,Light Snow,60,2013-04-22 07:22:00
1:43 AM,30.2,28.4,93,30.11,0.5,ENE,19.6,-,0.03,Fog-Snow,Snow,60,2013-04-22 07:43:00
1:52 AM,30.0,28.0,92,30.19,0.5,ENE,18.4,-,0.04,Fog-Snow,Snow,60,2013-04-22 07:52:00
2:52 AM,28.9,27.0,92,30.19,0.8,NE,19.6,-,0.08,Snow,Light Snow,40,2013-04-22 08:52:00
3:52 AM,27.0,25.0,92,30.23,0.5,NNE,18.4,-,0.04,Fog-Snow,Snow,20,2013-04-22 09:52:00
4:52 AM,27.0,25.0,92,30.23,0.8,NNE,15.0,-,0.04,Snow,Light Snow,30,2013-04-22 10:52:00
4:59 AM,26.6,24.8,93,30.16,1.2,NNE,13.8,-,0.01,Snow,Light Snow,30,2013-04-22 10:59:00
5:07 AM,26.6,24.8,93,30.16,1.8,NNE,15.0,-,0.01,Snow,Light Snow,20,2013-04-22 11:07:00
5:25 AM,26.6,24.8,93,30.17,1.2,NNE,15.0,-,0.01,Snow,Light Snow,30,2013-04-22 11:25:00
5:52 AM,26.1,24.1,92,30.27,1.0,NE,18.4,-,0.02,Snow,Light Snow,40,2013-04-22 11:52:00
6:11 AM,26.6,24.8,93,30.19,0.5,NNE,15.0,-,0.01,Fog-Snow,Snow,20,2013-04-22 12:11:00
6:22 AM,26.6,24.8,93,30.20,0.5,NE,16.1,-,0.01,Fog-Snow,Snow,40,2013-04-22 12:22:00
6:52 AM,26.1,24.1,92,30.31,0.5,NNE,17.3,-,0.02,Fog-Snow,Snow,20,2013-04-22 12:52:00
7:03 AM,26.6,24.8,93,30.23,0.2,NNE,12.7,-,0.00,Fog-Snow,Snow,30,2013-04-22 13:03:00
7:11 AM,26.6,24.8,93,30.23,0.2,North,15.0,-,0.00,Fog-Snow,Snow,10,2013-04-22 13:11:00
7:23 AM,26.6,24.8,93,30.23,0.2,NNE,17.3,-,0.01,Fog-Snow,Snow,20,2013-04-22 13:23:00
7:52 AM,25.0,23.0,92,30.34,0.2,NNE,19.6,-,0.01,Fog-Snow,Snow,20,2013-04-22 13:52:00
7:59 AM,26.6,23.0,86,30.24,0.5,NNE,16.1,-,0.00,Fog-Snow,Snow,20,2013-04-22 13:59:00
8:11 AM,24.8,23.0,93,30.25,0.2,NNE,18.4,-,0.01,Fog-Snow,Snow,20,2013-04-22 14:11:00
8:52 AM,26.1,23.0,88,30.36,0.2,North,18.4,-,0.01,Fog-Snow,Light Snow,10,2013-04-22 14:52:00
8:58 AM,26.6,21.2,80,30.26,1.2,NNE,17.3,-,0.00,Snow,Light Snow,20,2013-04-22 14:58:00
9:08 AM,26.6,21.2,80,30.27,0.2,North,19.6,-,0.00,Fog-Snow,Light Snow,10,2013-04-22 15:08:00
9:52 AM,25.0,21.9,88,30.40,0.2,North,19.6,-,0.00,Fog-Snow,Light Snow,10,2013-04-22 15:52:00
9:59 AM,24.8,21.2,86,30.29,1.2,North,19.6,-,0.00,Snow,Light Snow,10,2013-04-22 15:59:00
10:33 AM,26.6,21.2,80,30.30,1.0,North,16.1,-,0.00,Snow,Light Snow,10,2013-04-22 16:33:00
10:47 AM,26.6,21.2,80,30.31,1.0,North,16.1,-,0.00,Snow,Light Snow,10,2013-04-22 16:47:00
10:52 AM,26.1,21.9,84,30.42,1.5,NNE,16.1,-,0.00,Snow,Light Snow,20,2013-04-22 16:52:00
11:30 AM,26.6,21.2,80,30.32,2.0,North,19.6,-,0.00,Snow,Light Snow,10,2013-04-22 17:30:00
11:52 AM,26.1,21.9,84,30.43,2.5,North,19.6,-,0.00,Snow,Light Snow,10,2013-04-22 17:52:00
12:25 PM,26.6,21.2,80,30.32,2.0,North,17.3,-,0.00,Snow,Light Snow,10,2013-04-22 18:25:00
12:33 PM,26.6,21.2,80,30.32,2.0,North,21.9,-,0.00,Snow,Light Snow,360,2013-04-22 18:33:00
12:41 PM,26.6,21.2,80,30.32,2.0,North,18.4,-,0.00,Snow,Light Snow,360,2013-04-22 18:41:00
12:46 PM,26.6,21.2,80,30.32,3.0,North,18.4,-,0.00,Snow,Light Snow,360,2013-04-22 18:46:00
12:52 PM,26.1,21.0,81,30.43,3.0,North,20.7,-,0.00,Snow,Light Snow,10,2013-04-22 18:52:00
12:59 PM,26.6,21.2,80,30.32,8.0,North,19.6,-,0.00,Snow,Light Snow,360,2013-04-22 18:59:00
1:19 PM,26.6,21.2,80,30.32,10.0,North,18.4,-,0.00,,Overcast,350,2013-04-22 19:19:00
1:52 PM,28.0,21.0,75,30.43,10.0,North,21.9,-,0.00,,Overcast,350,2013-04-22 19:52:00
2:26 PM,26.6,21.2,80,30.33,10.0,North,18.4,-,N/A,,Mostly Cloudy,360,2013-04-22 20:26:00
2:36 PM,26.6,19.4,74,30.33,10.0,North,23.0,-,N/A,,Mostly Cloudy,360,2013-04-22 20:36:00
2:45 PM,26.6,19.4,74,30.33,10.0,North,21.9,-,N/A,,Scattered Clouds,360,2013-04-22 20:45:00
2:52 PM,27.0,19.0,72,30.44,10.0,North,18.4,-,N/A,,Scattered Clouds,360,2013-04-22 20:52:00
3:17 PM,28.4,21.2,74,30.33,10.0,North,19.6,-,N/A,,Mostly Cloudy,360,2013-04-22 21:17:00
3:28 PM,28.4,19.4,69,30.32,10.0,North,20.7,-,N/A,,Mostly Cloudy,360,2013-04-22 21:28:00
3:52 PM,27.0,19.0,72,30.45,10.0,North,21.9,-,N/A,,Partly Cloudy,360,2013-04-22 21:52:00
4:52 PM,27.0,18.0,69,30.45,10.0,NNW,19.6,-,N/A,,Clear,340,2013-04-22 22:52:00
5:52 PM,26.1,17.1,69,30.45,10.0,NNW,16.1,-,N/A,,Mostly Cloudy,330,2013-04-22 23:52:00
6:52 PM,26.1,17.1,69,30.46,10.0,NNW,12.7,-,N/A,,Overcast,330,2013-04-23 00:52:00
7:52 PM,21.0,14.0,74,30.49,10.0,NW,10.4,-,N/A,,Clear,320,2013-04-23 01:52:00
8:52 PM,19.0,12.0,74,30.50,10.0,NW,11.5,-,N/A,,Clear,320,2013-04-23 02:52:00
9:52 PM,19.9,12.0,71,30.50,10.0,NW,11.5,-,N/A,,Clear,320,2013-04-23 03:52:00
10:52 PM,19.9,12.0,71,30.49,10.0,NW,8.1,-,N/A,,Clear,310,2013-04-23 04:52:00
11:52 PM,18.0,10.9,74,30.49,10.0,NW,8.1,-,N/A,,Mostly Cloudy,310,2013-04-23 05:52:00